User: anonymous   Login
Location: Caltech
(34.1382°N, 118.1253°W)
Time: 00:03:06
(UTC-07:00)
Language:

SL-08 R/B - Orbit

View from above orbital plane
View from above orbital plane
View from above satellite
View from above satellite

Ground track
Ground track

The orbit data is extracted from the following two-line orbital elements,

1 27561U 02054C   14297.81948924  .00000801  00000-0  19418-3 0  3269
2 27561 098.1252 074.2284 0045449 287.7047 197.7185 14.55013508631727
Epoch (UTC): 24 October 2014 19:40:03
Eccentricity: 0.0045449
inclination: 98.1252°
perigee height: 677 km
apogee height: 741 km
right ascension of ascending node: 74.2284°
argument of perigee: 287.7047°
revolutions per day: 14.55013508
mean anomaly at epoch: 197.7185°
orbit number at epoch: 63172

The dashed part of the orbit path shows where the satellite is in the earth's shadow,  

DLR